Milan, Italy

7:59 PM CEST on August 30, 2016 (GMT +0200)
Malpensa

Weather History for LIMC - March, 2013

Change the Weather History Date:

Sunday, March 31, 2013

  Actual Average Record
Temperature  
Mean Temperature 48 °F -  
Max Temperature 62 °F 63 °F 75 °F (2012)
Min Temperature 33 °F 40 °F 30 °F (2002)
Degree Days  
Heating Degree Days 18    
Moisture  
Dew Point 27 °F    
Average Humidity 59    
Maximum Humidity 100    
Minimum Humidity 11    
Precipitation  
Precipitation 0.00 in 0.14 in - ()
Sea Level Pressure  
Sea Level Pressure 29.45 in    
Wind  
Wind Speed 5 mph ()    
Max Wind Speed 9 mph    
Max Gust Speed -    
Visibility 6.2 miles    
Events Fog    
Averages and records for this station are not official NWS values.
T = Trace of Precipitation, MM = Missing Value Source: Averaged Metar Reports

Daily Weather History Graph

Daily Weather History Graph

Search for Another Location

Airport or City:

Trip Planner

Search our weather history database for the weather conditions in past years. The results will help you decide how hot, cold, wet, or windy it might be!

Date:

Astronomy

Mar. 31, 2013 Rise Set
Actual Time 7:07 AM CEST 7:52 PM CEST
Civil Twilight 6:37 AM CEST 8:22 PM CEST
Nautical Twilight 6:01 AM CEST 8:57 PM CEST
Astronomical Twilight 5:24 AM CEST 9:35 PM CEST
Moon No Moon Rise 9:27 AM CEST (3/31)
Length of Visible Light 13h 44m
Length of Day
12h 44m
Waning Gibbous, 80% of the Moon is Illuminated
Mar 31
Waning Gibbous
Apr 3
Last Quarter
Apr 10
New
Apr 18
First Quarter
Apr 25
Full

Hourly Weather History & Observations

Time (CEST) Temp. Windchill Dew Point Humidity Pressure Visibility Wind Dir Wind Speed Gust Speed Precip Events Conditions
12:20 AM 35.6 °F 32.8 °F 35.6 °F 100% 29.42 in 6.2 mi WNW 3.5 mph - N/A Fog Patches of Fog
12:50 AM 33.8 °F 28.6 °F 33.8 °F 100% 29.42 in 6.2 mi WNW 5.8 mph - N/A Fog Patches of Fog
1:20 AM 35.6 °F 31.7 °F 35.6 °F 100% 29.42 in 6.2 mi West 4.6 mph - N/A   Partly Cloudy
1:50 AM 35.6 °F 30.7 °F 35.6 °F 100% 29.39 in 6.2 mi WNW 5.8 mph - N/A   Partly Cloudy
3:20 AM 35.6 °F 32.8 °F 35.6 °F 100% 29.39 in 6.2 mi West 3.5 mph - N/A   Partly Cloudy
3:50 AM 35.6 °F 31.7 °F 35.6 °F 100% 29.39 in 6.2 mi West 4.6 mph - N/A Fog Patches of Fog
4:20 AM 35.6 °F 31.7 °F 35.6 °F 100% 29.39 in 6.2 mi WNW 4.6 mph - N/A Fog Patches of Fog
4:50 AM 35.6 °F 32.8 °F 35.6 °F 100% 29.39 in 6.2 mi West 3.5 mph - N/A   Partly Cloudy
5:20 AM 37.4 °F 32.1 °F 37.4 °F 100% 29.39 in 6.2 mi WNW 6.9 mph - N/A   Partly Cloudy
5:50 AM 35.6 °F 31.7 °F 35.6 °F 100% 29.39 in 6.2 mi WNW 4.6 mph - N/A Fog Patches of Fog
6:20 AM 33.8 °F 29.6 °F 33.8 °F 100% 29.39 in 6.2 mi WNW 4.6 mph - N/A Fog Patches of Fog
6:50 AM 33.8 °F 29.6 °F 33.8 °F 100% 29.39 in - West 4.6 mph - N/A   Clear
7:20 AM 35.6 °F 29.9 °F 35.6 °F 100% 29.39 in 6.2 mi WNW 6.9 mph - N/A Fog Shallow Fog
7:50 AM 35.6 °F 30.7 °F 35.6 °F 100% 29.39 in 6.2 mi WNW 5.8 mph - N/A Fog Shallow Fog
8:20 AM 39.2 °F 34.2 °F 39.2 °F 100% 29.39 in 6.2 mi NW 6.9 mph - N/A Fog Shallow Fog
8:50 AM 42.8 °F 40.1 °F 41.0 °F 93% 29.42 in 6.2 mi NNW 4.6 mph - N/A   Scattered Clouds
9:20 AM 44.6 °F 42.2 °F 41.0 °F 87% 29.42 in 6.2 mi NNW 4.6 mph - N/A   Mostly Cloudy
9:50 AM 44.6 °F 39.7 °F 41.0 °F 87% 29.42 in 6.2 mi West 9.2 mph - N/A   Mostly Cloudy
10:20 AM 48.2 °F - 41.0 °F 76% 29.42 in 6.2 mi WNW 5.8 mph - N/A   Mostly Cloudy
10:50 AM 53.6 °F - 41.0 °F 62% 29.42 in 6.2 mi NW 5.8 mph - N/A   Mostly Cloudy
11:20 AM 59.0 °F - 33.8 °F 39% 29.42 in 6.2 mi NNW 4.6 mph - N/A   Scattered Clouds
11:50 AM 60.8 °F - 28.4 °F 29% 29.42 in 6.2 mi NNE 4.6 mph - N/A   Scattered Clouds
12:20 PM 60.8 °F - 26.6 °F 27% 29.42 in 6.2 mi NNE 6.9 mph - N/A   Scattered Clouds
12:50 PM 60.8 °F - 23.0 °F 23% 29.44 in 6.2 mi North 5.8 mph - N/A   Scattered Clouds
1:20 PM 60.8 °F - 23.0 °F 23% 29.44 in 6.2 mi NNE 6.9 mph - N/A   Scattered Clouds
1:50 PM 60.8 °F - 21.2 °F 22% 29.44 in 6.2 mi NNE 5.8 mph - N/A   Scattered Clouds
2:20 PM 62.6 °F - 23.0 °F 22% 29.44 in 6.2 mi North 4.6 mph - N/A   Scattered Clouds
2:50 PM 60.8 °F - 21.2 °F 22% 29.44 in 6.2 mi WNW 9.2 mph - N/A   Scattered Clouds
3:20 PM 60.8 °F - 15.8 °F 17% 29.44 in 6.2 mi NW 4.6 mph - N/A   Scattered Clouds
3:50 PM 62.6 °F - 14.0 °F 15% 29.44 in 6.2 mi North 4.6 mph - N/A   Scattered Clouds
4:20 PM 60.8 °F - 8.6 °F 13% 29.44 in 6.2 mi North 5.8 mph - N/A   Scattered Clouds
4:50 PM 62.6 °F - 10.4 °F 13% 29.44 in - North 5.8 mph - N/A   Clear
5:20 PM 60.8 °F - 6.8 °F 12% 29.44 in - North 6.9 mph - N/A   Clear
5:50 PM 59.0 °F - 5.0 °F 12% 29.44 in - North 5.8 mph - N/A   Clear
6:20 PM 59.0 °F - 5.0 °F 12% 29.47 in - North 6.9 mph - N/A   Clear
6:50 PM 57.2 °F - 3.2 °F 11% 29.47 in - North 6.9 mph - N/A   Clear
7:50 PM 53.6 °F - 12.2 °F 19% 29.47 in - North 4.6 mph - N/A   Clear
8:20 PM 51.8 °F - 14.0 °F 22% 29.50 in - NE 5.8 mph - N/A   Clear
8:50 PM 51.8 °F - 12.2 °F 21% 29.53 in - North 3.5 mph - N/A   Clear
9:20 PM 48.2 °F - 14.0 °F 25% 29.53 in - NE 3.5 mph - N/A   Clear
9:50 PM 50.0 °F - 14.0 °F 24% 29.56 in - NNE 5.8 mph - N/A   Clear
10:20 PM 48.2 °F - 19.4 °F 32% 29.56 in - East 5.8 mph - N/A   Clear
10:50 PM 46.4 °F 44.3 °F 35.6 °F 66% 29.59 in - East 4.6 mph - N/A   Clear
11:20 PM 44.6 °F - 37.4 °F 76% 29.59 in - Variable 2.3 mph - N/A   Clear
11:50 PM 42.8 °F - 37.4 °F 81% 29.62 in - Variable 2.3 mph - N/A   Clear
12:20 AM 41.0 °F - 39.2 °F 93% 29.62 in - Variable 1.2 mph - N/A   Clear
12:50 AM 41.0 °F - 39.2 °F 93% 29.62 in - Variable 2.3 mph - N/A   Clear